BREEZE-M DEB (TANK), 55843

Orbit data source: Space-Track

BREEZE-M DEB (TANK), 55843 is space debris in HEO originally from a launch on Sun, 12 Mar 2023 UTC launched from the Tyuratam Missile And Space Complex (TTMTR). Debris objects in space refer to the collection of defunct objects orbiting the Earth. Examples of debris include non-operational satellites, rocket bodies, and fragments generated from explosions, collisions, or faulty payload assembly.

Loading next visibility...
Identifier
55843, 2023-031C
Orbit
HEO
Country
Flag of CISCIS
Related business
Manufacturer
Khrunichev
Mission
Spacecraft
Bus & Motor
BRIZ TANK, Unknown motor
Mass
~1,000 kg wet, 1,000 kg dry
Launch date (UTC)
2023-03-12 (3 years ago)
Launch vehicle
Unknown
Launch site
Tyuratam Missile And Space Complex (TTMTR)
Object type
Payload
Rocket body
Debris
Shape & HBR
Torus, 2.0 m
Radar Cross Section
8.218 m², Large (>1 m²)

Expand to show TLE details & history
Last TLE update: 14 hours ago

TLE from 14 hours ago
0 BREEZE-M DEB (TANK)
1 55843U 23031C   26034.51731280  .00045491  00000-0  13790-2 0  9991
2 55843  48.6422 112.3468 5706264   9.0849 358.0039  4.57400199 21479
Epoch: 2026-02-03T12:24Z
TLE epoch observation values (Epoch: 2026-02-03T12:24:55.825Z)
Latitude
-0.00009°
Longitude
152.42893°
Altitude
231.123 km
Speed
9.728 km/s
True Right ascension
07h 29m 26s
True Declination
0° 00' 00"
Sunlit
Object was in full shadow at epoch
Visualization orbit readout
Latitude
Unknown
Longitude
Unknown
Altitude
Unknown
Speed
Unknown
Apparent Right ascension
Unknown
Apparent Declination
Unknown
Sunlit
N/A
Visualization observer readout
Local Sidereal Time
04:17:43
Azimuth
Unknown
Elevation
Unknown
Doppler factor
Unknown
Orbital elements
Apogee altitude
17,700.591 km
Perigee altitude
204.44 km
Semi-major axis
15,330.653 km
Eccentricity
0.57063
Inclination
48.6422°
RAAN
112.3468°
Arg. of periapsis
9.0849°
True anomaly
351.13447°
Mean anomaly
358.0039°
Eccentric anomaly
355.35788°
Mean motion
1.14341 °/min
Orbital period
314.85 mins
BSTAR
0.001379
Loading maneuver chart data...
Computing Atmospheric mass density...
Loading historical data...
Loading historical data...
Loading historical data...
Loading historical data...
Loading historical data...
Loading historical data...
Loading historical data...
Other satellites on launch #31 in the year 2023 (2023-03-12 UTC)

Documentation

Showing up to 5 results
|